Location: Newark
(40.9833°N, 0.0333°W)
Time: 16:57:13
(UTC+00:00)

Courier 1B - All Passes

Search period start: 21 October 2020 00:00
Search period end: 31 October 2020 00:00
Orbit: 963 x 1209 km, 28.3° (Epoch: 20 October)

Date Brightness Start Highest point End Pass type
(mag) Time Alt. Az. Time Alt. Az. Time Alt. Az.
21 Oct - 13:32:50 10° SSW 13:37:25 20° SSE 13:42:07 10° ESE daylight
21 Oct - 15:25:04 10° SW 15:30:33 28° S 15:36:15 10° ESE daylight
21 Oct - 17:18:38 10° WSW 17:23:46 23° SSW 17:29:08 10° SE daylight
21 Oct - 19:15:03 10° SW 19:16:53 11° SSW 19:18:46 10° S visible
22 Oct - 12:39:59 10° SSW 12:43:56 17° SSE 12:47:57 10° ESE daylight
22 Oct - 14:31:41 10° SW 14:36:59 26° S 14:42:28 10° ESE daylight
22 Oct - 16:24:55 10° WSW 16:30:12 25° S 16:35:41 10° SE daylight
22 Oct - 18:19:58 10° SW 18:23:20 14° SSW 18:26:47 10° S visible
23 Oct - 11:47:28 10° S 11:50:28 14° SSE 11:53:30 10° SE daylight
23 Oct - 13:38:22 10° SW 13:43:27 25° S 13:48:40 10° ESE daylight
23 Oct - 15:31:19 10° WSW 15:36:37 26° S 15:42:08 10° SE daylight
23 Oct - 17:25:40 10° WSW 17:29:46 17° SSW 17:34:01 10° SSE visible
24 Oct - 10:56:08 10° SSE 10:57:01 10° SSE 10:57:55 10° SSE daylight
24 Oct - 12:45:08 10° SW 12:49:57 22° SSE 12:54:48 10° ESE daylight
24 Oct - 14:37:46 10° WSW 14:43:04 27° S 14:48:31 10° SE daylight
24 Oct - 16:31:40 10° WSW 16:36:14 20° SSW 16:40:57 10° SSE daylight
25 Oct - 11:52:02 10° SSW 11:56:27 19° SSE 12:00:52 10° ESE daylight
25 Oct - 13:44:16 10° SW 13:49:33 27° S 13:54:54 10° ESE daylight
25 Oct - 15:37:50 10° WSW 15:42:42 22° SSW 15:47:41 10° SE daylight
25 Oct - 17:34:27 10° SW 17:35:43 11° SSW 17:37:00 10° SSW visible
26 Oct - 10:59:08 10° SSW 11:02:58 16° SSE 11:06:46 10° SE daylight
26 Oct - 12:50:50 10° SW 12:56:01 26° S 13:01:14 10° ESE daylight
26 Oct - 14:44:07 10° WSW 14:49:09 24° S 14:54:19 10° SE daylight
26 Oct - 16:39:11 10° SW 16:42:13 13° SSW 16:45:18 10° S daylight
27 Oct - 10:06:35 10° S 10:09:30 13° SSE 10:12:22 10° SE daylight
27 Oct - 11:57:28 10° SW 12:02:30 24° S 12:07:31 10° ESE daylight
27 Oct - 13:50:28 10° WSW 13:55:38 25° S 14:00:52 10° SE daylight
27 Oct - 15:44:51 10° SW 15:48:42 16° SSW 15:52:39 10° SSE daylight
28 Oct - 09:15:20 10° SSE 09:16:01 10° SSE 09:16:42 10° SSE daylight
28 Oct - 11:04:10 10° SW 11:08:59 22° SSE 11:13:45 10° ESE daylight
28 Oct - 12:56:52 10° SW 13:02:07 26° S 13:07:22 10° SE daylight
28 Oct - 14:50:49 10° WSW 14:55:13 19° SSW 14:59:40 10° SSE daylight
29 Oct - 10:10:59 10° SSW 10:15:29 19° SSE 10:19:53 10° ESE daylight
29 Oct - 12:03:17 10° SW 12:08:35 26° S 12:13:50 10° ESE daylight
29 Oct - 13:56:56 10° WSW 14:01:43 22° SSW 14:06:31 10° SE daylight
29 Oct - 15:53:48 10° SSW 15:54:40 10° SSW 15:55:32 10° SSW daylight
30 Oct - 09:17:59 10° SSW 09:21:58 16° SSE 09:25:52 10° SE daylight
30 Oct - 11:09:46 10° SW 11:15:04 26° S 11:20:15 10° ESE daylight
30 Oct - 13:03:09 10° WSW 13:08:12 24° S 13:13:14 10° SE daylight
30 Oct - 14:58:16 10° SW 15:01:12 13° SSW 15:04:09 10° S daylight
